Vorticity
11 10 10 10 10 9 9 7 7 9 7 7 7 3 5 6 5 5 6 6 7 7 7 6 5 4 2 2 3 1 1 1 2 2 2 2 3 4 4 5 5 4 4 4 3 3 4 4 4 3 2 2 2 2 2 2 2 2 3 2 2 2 2 3 2 3 3 3 3 2 2 2 2 2 2 2 2 2 2 2 2 2 2 2 3 3 4 6 7 9 9 9 8 6 5 4 3
9 8 8 7 6 4 5 3 3 7 2 3 6 3 6 5 4 5 5 5 5 5 4 3 2 2 1 2 2 2 2 3 4 4 4 4 4 4 5 5 4 3 3 2 2 3 3 2 3 2 2 2 2 2 2 2 2 2 2 2 2 3 3 3 3 3 3 3 2 2 2 3 3 3 3 3 3 3 3 3 2 3 3 2 2 2 3 3 4 5 6 8 9 9 9 8 6
5 4 3 3 4 2 4 1 2 6 -0 1 4 4 5 5 4 4 4 3 3 3 2 2 2 2 2 3 3 3 4 4 5 4 4 4 4 4 4 4 3 2 2 2 2 2 2 2 2 2 3 2 2 2 2 2 2 2 2 2 2 3 3 3 3 3 3 3 3 3 3 3 3 3 3 3 3 3 3 3 3 3 3 3 3 3 3 2 3 3 3 4 5 6 8 9 10
2 3 3 2 4 5 5 2 4 6 2 4 4 4 5 5 5 3 4 3 3 3 3 3 3 4 4 5 5 5 4 4 4 3 3 2 2 2 2 1 1 1 2 1 1 1 1 1 1 2 2 2 2 2 2 2 2 3 3 3 3 3 4 4 4 3 3 3 3 3 3 4 3 4 4 4 4 4 4 4 4 4 4 4 3 3 3 3 3 3 3 3 3 4 4 5 8
2 3 5 5 4 8 10 5 5 5 6 7 6 7 6 7 6 5 5 4 4 5 5 5 5 6 6 5 4 4 3 3 3 2 2 1 0 -0 -0 -1 -0 0 0 0 -0 0 1 1 1 1 1 2 2 3 3 3 3 3 3 4 4 4 4 4 3 3 3 3 3 4 4 4 4 4 4 5 6 6 6 6 6 6 5 5 5 4 4 4 4 4 4 3 4 3 3 3 5
5 3 5 8 4 9 10 5 6 8 11 10 10 12 9 9 8 7 7 6 7 6 6 6 5 5 5 4 3 2 1 2 1 1 1 -0 -0 -1 -0 -0 0 0 0 0 1 1 1 1 2 2 1 1 2 4 4 4 5 4 4 4 5 5 4 4 3 3 3 3 4 4 4 4 4 4 5 5 6 6 7 7 7 7 7 7 6 6 6 5 5 5 5 4 4 4 4 3 4
5 3 5 8 4 8 8 5 7 8 11 9 10 11 9 8 7 6 6 6 6 5 5 4 3 3 3 2 2 1 0 1 0 -0 -0 -0 -0 0 1 1 1 1 2 2 3 3 2 2 2 2 2 3 4 4 5 5 5 5 5 4 5 4 4 3 3 3 3 4 4 4 4 5 5 5 5 5 6 6 7 7 8 8 8 8 8 8 7 7 6 6 6 5 5 4 4 4 4
3 4 6 7 5 6 6 5 5 6 7 6 6 6 5 4 4 4 4 4 3 3 3 2 2 1 1 1 1 1 -0 0 -0 -1 -0 0 0 1 1 2 3 3 4 3 3 3 3 3 3 3 4 5 5 5 6 5 5 4 4 4 4 4 3 3 3 3 4 4 4 5 5 5 5 5 6 6 6 7 7 8 9 9 9 9 9 9 8 8 8 7 7 6 6 5 5 5 4
3 4 4 6 6 4 4 6 5 4 5 5 4 3 3 3 3 3 2 2 2 2 1 1 1 0 1 1 0 -0 -0 -0 -1 -0 0 1 1 2 2 3 4 3 3 3 3 3 3 4 5 6 6 6 6 6 6 5 5 4 4 4 4 4 4 4 4 4 4 5 5 5 5 5 5 6 6 6 7 8 8 9 9 10 9 9 9 9 9 9 9 8 8 8 7 6 6 5 5
3 3 3 5 6 3 6 8 6 5 5 6 4 3 4 3 2 2 2 2 2 1 1 1 1 0 0 0 0 -0 0 -0 0 1 1 2 2 3 3 3 3 2 3 3 4 5 6 7 7 7 6 6 6 5 5 5 5 4 4 4 4 5 5 5 5 5 5 6 6 6 6 6 6 6 7 8 9 9 10 10 11 11 10 10 10 9 9 9 9 8 8 8 8 8 7 6 6
3 2 3 4 5 6 7 7 7 5 3 5 3 3 5 3 2 2 2 2 2 1 0 0 0 0 0 1 1 0 1 1 2 2 2 3 3 3 3 3 3 4 5 6 7 7 7 7 6 6 5 5 5 5 4 4 4 4 5 4 5 5 5 5 5 5 5 6 6 6 7 7 7 7 8 8 9 10 11 11 11 11 11 11 11 11 11 11 9 9 8 8 9 9 8 7 7
4 3 4 3 5 5 6 6 8 6 4 6 3 3 5 4 3 2 1 2 2 2 1 -0 0 0 1 2 1 1 2 2 3 2 3 3 3 4 4 5 6 7 7 8 7 7 6 5 5 5 5 5 5 5 4 5 5 5 5 5 5 5 5 5 5 5 5 5 5 6 6 7 8 9 9 9 10 10 10 10 10 11 11 11 11 12 12 12 11 10 9 9 9 9 9 8 7
4 4 4 4 5 5 6 7 8 8 7 7 4 3 4 3 2 1 1 2 3 2 2 1 2 1 2 3 3 3 3 3 3 3 4 4 5 6 6 7 7 7 6 6 6 5 5 5 5 5 5 5 5 5 5 5 5 5 5 5 5 5 5 5 5 5 5 5 5 6 7 8 9 10 11 11 11 10 10 9 9 10 10 10 10 11 11 11 11 11 10 10 10 9 9 9 9
5 5 5 5 5 6 7 8 8 7 7 7 5 4 4 3 3 3 2 2 4 3 3 3 2 2 3 4 4 4 3 3 4 5 5 5 7 7 7 6 5 5 5 5 5 5 6 6 5 4 4 4 5 5 5 5 4 5 5 5 5 5 5 5 6 5 6 6 7 8 9 10 11 11 11 11 11 11 11 10 9 9 9 9 9 10 10 10 11 11 11 10 10 10 10 10 10
6 7 6 6 6 7 7 9 9 7 6 6 5 5 5 4 3 4 3 2 3 4 3 4 4 3 3 4 4 5 5 5 6 6 6 6 6 5 5 4 5 5 5 5 6 6 6 6 6 5 5 5 5 5 5 5 5 5 5 6 6 6 6 6 6 7 8 9 10 11 12 12 12 12 12 11 12 11 11 10 10 9 9 9 9 9 9 9 10 10 10 11 11 11 10 10 10
8 7 7 7 7 7 8 9 11 10 9 7 6 6 6 6 5 5 4 4 3 4 4 4 5 4 4 5 5 6 7 7 7 6 6 5 4 4 4 4 4 5 5 6 5 5 5 5 5 6 6 5 5 5 5 5 5 6 5 6 6 6 7 7 8 9 11 12 12 13 13 13 13 12 12 12 12 12 11 11 10 10 9 9 9 9 9 8 8 9 9 10 11 11 11 10 10
8 8 8 8 7 8 8 8 10 10 9 8 7 6 6 5 6 5 4 5 4 4 5 5 6 6 5 5 5 5 5 5 5 4 4 4 4 5 5 5 5 5 5 5 4 4 5 5 5 6 6 5 5 5 5 5 6 6 6 6 7 7 8 10 11 12 12 12 13 13 14 14 14 13 13 13 12 12 12 11 11 11 10 10 9 9 9 8 8 8 8 9 10 10 11 11 10
7 8 7 7 8 8 8 7 8 7 7 7 7 7 6 5 5 4 4 4 3 3 5 4 5 6 5 4 4 4 4 4 4 4 5 6 6 6 6 6 5 5 4 4 4 4 5 5 6 6 6 6 6 5 6 6 6 5 6 7 8 10 11 12 12 13 13 13 14 14 14 15 15 15 14 14 13 13 13 12 12 12 12 11 11 10 10 9 8 8 8 9 10 10 11 11 11
6 7 7 6 7 7 7 7 6 6 7 7 7 7 7 7 6 5 6 6 5 4 6 6 5 5 5 5 5 5 5 5 6 6 6 6 6 6 5 5 4 4 4 4 5 5 5 5 6 6 6 6 6 6 6 5 6 6 8 9 10 11 11 12 12 13 14 14 15 15 15 15 14 14 13 13 13 13 13 13 13 13 14 13 13 12 12 11 9 9 9 9 10 11 10 9 9
6 6 5 6 6 6 6 6 6 6 6 6 6 5 6 8 7 6 7 7 6 5 6 7 6 6 6 6 6 6 6 6 6 6 5 5 5 5 4 4 4 4 5 6 6 6 6 6 6 6 6 6 6 6 5 6 8 9 11 11 11 11 12 13 13 13 14 14 15 16 16 15 14 13 12 11 11 12 12 12 13 13 14 14 14 14 14 13 12 12 12 12 12 11 8 7 7
5 5 6 6 6 6 6 6 6 6 6 6 6 6 6 7 7 6 6 6 6 5 6 6 6 7 6 5 5 5 6 6 6 5 5 5 5 4 4 4 4 4 6 6 6 6 6 7 7 7 7 5 5 5 6 9 10 11 11 11 12 13 13 13 13 14 15 16 16 16 16 16 15 13 12 11 10 11 11 12 13 13 13 13 13 13 14 14 14 14 14 14 12 8 5 4 4
6 6 6 7 7 6 6 5 5 5 6 6 7 6 5 6 6 6 5 5 4 4 5 5 5 6 6 5 5 6 6 6 5 5 5 5 5 4 4 4 5 5 6 6 6 7 8 9 9 8 7 5 5 6 9 11 10 10 10 11 12 12 12 12 13 15 16 16 16 15 14 14 13 13 12 11 10 10 10 10 11 12 13 12 12 12 12 12 12 13 12 11 8 4 3 2 3
6 6 6 6 5 5 5 6 6 5 5 6 6 5 5 5 4 4 4 4 4 3 3 4 4 5 6 5 5 5 6 6 6 5 5 5 4 3 5 6 6 6 7 6 7 8 9 10 9 8 6 5 8 11 13 11 10 10 10 11 11 11 11 11 13 14 15 15 14 12 11 11 11 11 10 9 9 8 8 8 9 10 11 11 11 11 10 10 10 9 8 6 4 2 2 1 2
6 5 5 5 5 6 6 5 5 4 4 4 4 4 4 4 4 4 4 4 4 3 3 3 4 4 5 5 5 5 5 5 5 5 4 4 4 5 7 6 6 7 7 6 8 10 11 9 6 5 6 9 13 14 13 10 10 10 11 11 10 10 10 11 13 14 14 13 12 10 9 9 9 9 9 8 8 7 7 7 8 9 10 10 9 9 8 9 8 7 6 3 2 1 1 1 2
5 5 5 5 6 6 5 5 5 4 3 3 4 4 3 3 3 3 3 4 4 4 4 4 4 5 6 6 6 6 5 5 4 4 4 4 6 7 7 6 6 6 6 8 10 11 10 7 5 8 12 15 15 12 10 9 10 10 11 9 8 9 10 12 14 13 12 11 10 9 8 8 8 8 8 8 8 8 8 7 8 8 8 9 8 9 8 7 7 6 4 3 2 1 0 1 2
5 5 5 5 5 5 5 5 4 3 2 3 3 4 4 3 3 4 4 4 4 4 4 4 6 6 6 6 6 6 5 5 4 3 5 6 7 7 6 6 6 6 8 10 9 8 6 6 9 13 15 13 11 9 10 10 11 10 9 8 8 8 10 12 13 12 11 9 8 7 6 6 6 7 8 8 8 8 9 8 8 7 7 7 7 8 8 6 6 6 5 4 3 2 1 1 1
5 6 5 5 4 4 5 4 4 4 2 2 2 4 5 4 4 5 4 4 4 3 4 4 5 5 6 5 5 5 4 4 4 5 7 8 7 7 6 6 7 8 10 9 7 7 8 10 13 13 11 10 9 9 10 10 10 9 7 7 7 8 10 12 13 12 9 7 6 5 5 4 5 6 7 8 8 8 8 7 7 7 7 7 6 7 8 6 6 6 5 4 3 2 2 2 1
5 4 4 4 4 4 3 3 4 4 3 2 2 4 5 4 5 6 5 5 5 4 4 4 5 6 6 4 4 4 4 4 5 7 8 8 7 7 7 8 8 8 7 6 8 10 12 12 11 9 9 9 9 9 9 9 8 7 6 6 6 7 10 12 13 10 7 6 4 4 4 3 3 4 6 7 7 7 7 7 7 7 6 6 6 6 7 7 6 6 6 5 5 4 3 3 2
3 3 4 4 3 3 3 3 3 3 3 3 3 3 4 6 5 5 5 5 4 4 4 5 5 5 4 4 3 4 4 5 6 7 7 7 8 9 10 10 9 9 9 11 12 13 13 12 11 11 10 9 7 7 8 8 7 6 5 5 5 7 10 12 11 8 6 4 3 3 3 3 4 4 5 6 6 6 6 6 6 6 6 5 5 5 5 6 6 7 7 7 7 6 6 5 5
3 3 4 3 3 3 2 2 2 2 2 3 4 2 3 6 5 5 5 5 4 4 4 5 5 5 4 3 3 5 6 6 6 6 6 7 8 9 10 9 10 12 14 15 14 15 15 14 13 11 9 8 7 7 7 7 6 5 4 4 5 7 10 11 9 7 5 3 3 4 4 4 5 5 6 5 5 6 5 6 5 5 5 5 5 5 5 5 5 5 6 6 6 7 7 7 7
3 4 4 4 3 2 2 3 2 2 2 3 5 3 1 4 7 6 5 5 4 4 4 4 4 5 4 4 5 7 7 8 8 8 9 10 10 9 8 9 12 13 14 14 15 16 15 13 11 9 8 7 7 7 6 6 5 4 3 4 7 10 11 10 8 6 4 3 2 2 3 3 4 5 5 5 5 5 5 5 5 5 4 4 5 5 5 5 5 5 5 5 5 5 6 6 7
4 4 4 3 3 3 3 4 4 3 3 3 5 5 2 3 6 6 6 5 4 4 4 4 5 5 5 6 7 7 7 8 9 10 12 13 11 10 11 13 15 14 15 15 15 14 11 9 8 6 5 5 5 5 5 4 4 4 5 7 10 11 10 9 6 4 2 2 1 1 2 3 4 4 4 5 5 5 5 5 5 5 4 4 4 4 5 5 5 4 4 5 4 5 5 5 5
5 3 3 5 5 6 5 6 5 3 3 4 5 5 2 4 7 6 6 6 6 7 6 6 6 6 6 6 6 8 8 8 10 12 13 12 11 12 14 16 15 15 15 14 13 11 8 7 6 5 5 5 6 6 5 5 6 7 9 10 11 10 8 6 4 3 2 1 0 1 2 3 4 5 6 6 6 7 7 7 6 6 6 6 6 6 6 6 5 5 4 5 5 4 5 5 5
4 4 5 6 7 7 6 6 4 3 4 5 5 5 4 6 8 6 6 6 6 7 5 6 7 6 5 6 9 11 11 13 14 13 12 11 12 15 17 16 15 16 14 12 12 10 9 8 8 8 7 7 7 7 6 7 9 11 11 11 10 8 6 4 3 2 1 0 -0 -1 -1 1 4 6 7 7 7 8 8 8 8 8 8 7 7 8 7 8 7 6 5 5 6 5 4 5 6
4 6 7 7 6 6 5 5 4 5 5 4 5 5 4 6 7 6 7 8 7 7 6 7 7 5 7 10 13 15 15 16 14 13 15 16 17 18 17 16 15 15 12 10 10 8 8 8 9 9 9 9 8 7 6 7 7 8 8 8 7 5 2 0 -0 -0 -0 -0 -0 -0 1 4 6 7 8 8 8 8 8 8 8 7 7 7 6 6 6 6 6 6 5 4 5 5 4 4 5
6 7 7 7 6 4 5 5 5 5 4 4 6 6 6 7 6 6 8 9 8 8 7 7 7 7 11 14 15 16 16 14 14 17 19 18 17 15 14 14 12 10 8 7 7 7 7 8 8 8 8 7 6 5 4 4 4 4 5 5 5 4 2 1 0 1 1 1 2 4 6 7 8 8 7 8 7 7 7 6 6 6 6 6 5 5 6 6 6 6 6 5 5 5 6 6 5
7 7 6 5 5 4 4 4 5 5 5 5 5 6 8 8 6 7 8 7 8 8 8 8 9 11 14 14 14 14 12 12 15 16 15 14 13 12 11 11 9 7 7 7 7 7 8 7 7 6 6 5 4 3 2 3 5 5 6 6 6 6 4 4 3 4 4 5 7 7 8 8 7 7 6 6 5 5 5 5 5 6 6 6 6 7 7 7 8 8 8 8 8 7 8 9 9
6 6 5 5 5 4 4 4 5 5 5 5 6 7 9 9 8 8 7 7 8 9 10 11 13 15 16 15 14 13 12 12 13 11 10 10 9 9 9 8 8 8 8 8 7 7 7 6 6 6 6 5 4 4 4 5 6 6 6 5 5 5 5 6 6 7 7 7 8 7 7 7 7 7 7 7 7 7 7 8 8 8 9 9 9 9 9 9 10 10 10 10 10 11 10 10 11
4 5 5 5 4 5 5 5 5 6 6 6 6 7 8 7 8 9 7 8 10 10 12 14 16 17 15 14 12 12 12 12 10 9 8 6 6 7 6 7 8 9 8 8 7 6 7 7 7 7 7 6 6 6 6 5 5 5 6 6 7 7 7 8 8 8 8 7 7 8 7 7 7 7 7 8 9 9 10 10 10 10 10 10 10 10 9 9 9 9 9 8 9 9 9 8 8
4 5 4 4 4 5 5 5 6 7 7 9 9 9 8 8 10 10 9 11 12 13 15 14 14 13 12 10 10 10 10 10 9 8 5 5 6 5 5 7 8 8 7 7 7 8 9 9 9 8 8 7 7 6 6 6 6 7 7 8 8 9 9 9 9 8 8 9 8 8 8 8 8 8 9 9 9 9 9 8 8 7 7 7 7 6 6 6 6 6 7 7 7 7 7 8 8
4 4 4 4 5 6 7 7 7 6 9 13 12 9 7 9 12 10 12 15 15 13 12 11 11 11 9 9 9 10 9 9 8 6 5 5 5 5 6 7 7 7 7 8 10 10 10 9 9 9 8 8 7 8 7 7 7 7 7 8 8 9 9 8 9 9 9 10 9 8 9 9 9 8 8 7 7 6 6 5 5 5 5 7 8 8 8 9 11 11 12 12 12 12 10 10 12
4 5 5 6 6 7 9 9 8 8 9 10 10 9 8 12 13 11 12 14 12 11 10 9 10 10 10 10 10 10 9 8 7 6 7 6 5 6 7 7 7 8 9 9 10 8 8 7 6 6 6 7 7 7 6 6 6 7 7 8 8 8 7 7 8 8 8 8 8 7 7 7 7 5 5 4 4 5 6 8 10 12 14 15 16 17 17 17 17 16 16 16 15 16 15 12 11
6 6 7 8 9 10 10 9 9 10 9 9 11 11 12 14 14 12 12 10 8 8 9 10 11 10 10 10 9 10 9 8 8 8 7 6 7 8 7 8 9 9 8 7 6 5 4 4 4 5 6 6 6 6 7 7 8 7 7 7 6 7 7 6 7 7 7 7 6 6 5 5 4 3 3 5 7 9 12 14 16 18 19 19 18 17 17 15 15 14 14 14 13 13 15 13 11
9 10 10 10 9 9 8 8 9 9 9 11 11 9 12 12 9 8 10 9 7 8 9 10 11 10 10 11 11 11 9 9 9 8 8 7 8 8 8 9 8 7 6 4 4 3 4 5 5 7 7 7 7 8 8 7 7 6 6 7 7 8 8 7 5 5 6 6 5 4 3 4 5 7 10 12 15 16 16 15 14 12 11 10 10 10 10 9 9 10 10 11 11 10 12 13 11
12 12 10 9 8 8 8 8 9 9 9 11 11 10 11 9 6 6 7 6 8 10 12 11 11 11 11 11 10 9 8 9 9 8 7 7 8 8 8 8 6 5 4 4 5 5 5 6 6 6 6 6 7 7 6 5 6 6 7 8 7 6 7 6 4 3 4 5 4 4 5 8 12 16 18 18 18 17 16 15 14 13 11 9 9 8 8 8 8 8 8 9 9 9 10 11 11
9 8 8 8 9 8 7 7 8 8 9 12 12 10 8 6 7 6 5 7 10 12 12 12 11 11 10 10 9 9 9 9 7 6 7 8 8 8 8 7 6 6 6 6 6 5 5 4 5 5 5 5 5 5 5 5 5 6 7 6 5 5 5 5 5 4 5 6 7 10 14 18 21 21 19 18 16 15 13 13 12 13 12 11 11 10 9 9 8 8 8 9 10 10 11 11 11
6 7 8 7 7 7 6 7 7 8 11 13 10 7 5 5 6 6 9 13 13 12 12 11 10 9 9 9 8 8 8 6 6 7 8 8 8 7 7 6 6 6 6 6 5 5 4 3 4 4 4 4 4 4 5 5 6 6 6 6 5 5 4 5 6 6 9 12 16 21 23 24 23 20 17 14 13 11 10 9 8 8 7 7 7 7 7 7 7 8 8 9 10 10 10 10 10
8 8 7 5 5 6 5 5 8 10 12 10 8 7 5 7 10 12 14 13 11 12 11 10 9 9 8 7 6 6 6 6 7 8 8 8 7 7 6 6 6 6 6 5 5 5 4 4 3 3 3 4 4 5 5 6 6 6 6 5 4 5 6 7 9 11 15 19 22 23 21 18 14 11 9 7 6 6 6 5 5 3 3 3 3 4 5 7 8 9 9 9 9 9 8 8 8
6 5 5 6 7 6 6 9 12 11 10 7 7 7 8 12 14 13 12 10 10 11 9 9 9 7 6 5 6 7 7 7 8 9 8 7 7 6 6 7 7 7 6 5 5 4 3 2 2 2 3 5 6 7 7 6 6 5 5 5 6 8 9 11 15 19 22 23 21 18 13 9 7 6 5 5 3 3 2 2 2 2 3 3 4 5 7 8 9 9 10 10 10 10 9 9 8
6 6 6 8 10 10 11 13 10 8 8 7 9 11 12 13 10 8 8 8 9 8 7 7 6 5 6 7 8 9 9 10 10 9 8 7 8 8 8 8 6 4 3 2 3 1 -0 -1 1 4 5 6 7 6 6 6 5 6 6 8 9 11 14 19 23 25 24 21 16 12 9 7 7 6 5 4 3 3 3 4 5 5 5 5 5 6 7 7 9 9 10 11 11 11 10 9 8
6 8 8 10 11 10 9 9 8 9 8 9 11 12 10 9 6 7 8 8 8 8 7 7 6 8 9 10 11 11 10 10 10 9 9 9 8 6 4 3 2 2 2 2 1 -1 -0 2 4 6 6 6 6 5 5 6 6 8 9 10 13 16 22 26 25 23 18 13 10 9 8 8 7 6 6 6 6 6 6 5 5 5 5 5 6 7 7 7 8 9 10 10 10 10 10 9 8
9 11 11 10 9 7 7 9 10 9 8 9 11 9 8 9 8 9 10 9 9 8 7 8 9 11 12 12 12 11 10 10 9 8 7 6 5 5 4 4 4 4 4 3 3 3 4 5 6 6 6 5 6 6 6 7 9 11 11 13 19 25 28 26 22 17 12 10 9 8 8 7 7 7 6 6 5 5 5 5 5 6 6 7 7 7 8 8 8 9 9 9 9 8 9 8 8
12 11 9 9 9 9 10 9 9 9 9 11 12 11 11 10 9 10 10 9 8 9 10 11 11 12 12 12 10 10 10 9 10 9 8 8 8 8 7 6 5 5 5 5 6 6 6 6 7 7 7 7 7 8 9 11 12 12 15 22 28 29 25 19 14 10 8 7 7 7 7 6 6 5 4 4 4 4 5 5 6 6 6 6 7 7 7 8 9 10 9 9 8 7 7 7 7
9 9 10 11 11 11 11 9 11 12 12 13 13 12 11 10 9 10 9 10 10 11 12 11 11 11 10 10 10 12 12 11 11 9 8 7 5 5 4 4 5 5 6 6 6 6 6 6 7 6 7 9 10 12 13 14 16 18 25 32 30 23 15 9 6 5 5 6 6 6 5 4 3 3 3 3 4 4 4 5 5 6 6 6 7 6 7 8 8 9 9 8 8 7 7 8 8
12 13 13 13 13 13 12 12 14 13 12 12 11 11 11 10 10 9 10 13 12 10 10 9 10 11 10 11 11 10 8 6 4 3 2 3 2 4 4 5 6 5 6 6 6 6 6 6 7 8 10 13 14 17 18 20 23 28 33 30 22 13 7 5 4 5 6 6 5 4 3 3 3 3 4 4 5 5 5 6 7 7 7 7 7 7 7 8 9 10 10 9 9 8 8 9 9
13 13 13 13 13 13 12 13 13 12 11 9 8 9 9 8 9 11 13 12 9 9 10 10 11 11 9 7 5 3 2 2 2 3 3 4 5 6 6 6 6 6 6 6 6 8 10 12 15 16 18 18 19 21 22 26 30 32 29 21 12 8 6 6 6 6 6 5 5 5 4 4 4 4 5 5 6 6 6 7 7 7 7 7 6 7 7 8 9 10 11 11 11 9 9 10 9
10 11 12 11 11 11 10 10 11 10 9 8 8 7 7 9 12 13 10 8 9 11 12 11 10 8 6 4 3 4 4 4 5 4 4 5 7 7 7 7 7 8 9 11 12 15 17 19 19 19 20 21 22 25 27 31 32 28 20 11 6 5 4 6 5 5 5 5 6 6 5 5 5 5 6 6 6 6 6 6 5 4 5 5 6 7 8 9 11 12 12 12 11 10 10 10 9
10 10 9 9 9 9 7 7 10 9 7 10 9 5 8 14 13 10 9 10 12 12 11 8 7 6 6 6 5 5 5 4 4 5 6 7 9 9 10 12 13 14 15 16 17 17 17 18 18 19 20 22 24 26 27 27 24 17 10 5 3 3 3 4 4 5 6 6 7 6 5 5 5 5 6 6 6 6 6 6 5 5 4 4 5 6 8 10 11 12 12 11 10 10 10 10 9
Height
5833 5834 5834 5834 5834 5835 5835 5835 5836 5836 5836 5836 5835 5834 5834 5834 5834 5834 5834 5834 5834 5834 5834 5834 5834 5834 5834 5834 5834 5834 5834 5834 5833 5833 5833 5833 5832 5832 5831 5830 5829 5829 5829 5829 5828 5827 5827 5826 5826 5826 5825 5824 5824 5823 5822 5821 5820 5820 5819 5818 5817 5816 5816 5815 5814 5814 5813 5813 5812 5812 5811 5811 5810 5810 5810 5810 5809 5809 5809 5808 5808 5807 5807 5807 5807 5806 5806 5806 5806 5806 5806 5806 5806 5807 5808 5808 5808
5834 5834 5834 5834 5835 5835 5835 5835 5836 5836 5836 5835 5834 5834 5834 5834 5834 5834 5833 5833 5833 5833 5833 5833 5833 5833 5833 5833 5833 5833 5833 5832 5832 5832 5832 5831 5831 5830 5829 5829 5828 5828 5827 5827 5826 5825 5824 5824 5823 5823 5822 5822 5821 5820 5819 5818 5817 5816 5816 5815 5814 5813 5812 5812 5811 5810 5809 5809 5808 5808 5807 5807 5806 5806 5805 5805 5805 5805 5805 5805 5804 5804 5803 5803 5803 5803 5802 5802 5802 5802 5802 5802 5802 5803 5803 5804 5804
5834 5834 5835 5835 5835 5835 5835 5835 5835 5835 5834 5834 5834 5834 5834 5834 5833 5833 5832 5832 5832 5832 5832 5832 5832 5832 5832 5831 5831 5831 5831 5831 5831 5830 5830 5829 5829 5828 5828 5827 5826 5826 5825 5825 5824 5823 5822 5821 5820 5820 5819 5818 5818 5817 5816 5815 5814 5813 5812 5811 5810 5809 5809 5808 5807 5806 5805 5805 5804 5804 5803 5803 5802 5801 5801 5801 5800 5800 5800 5800 5800 5799 5799 5799 5799 5799 5799 5798 5798 5798 5798 5798 5798 5799 5799 5799 5800
5835 5835 5835 5835 5835 5835 5835 5834 5834 5834 5833 5833 5833 5833 5833 5833 5832 5831 5831 5831 5831 5831 5831 5831 5831 5830 5830 5830 5830 5830 5829 5829 5829 5829 5828 5827 5827 5826 5826 5825 5824 5824 5823 5822 5822 5821 5820 5819 5818 5817 5816 5815 5814 5814 5813 5812 5811 5809 5808 5807 5806 5805 5805 5804 5803 5802 5801 5801 5800 5800 5799 5798 5798 5797 5796 5796 5795 5795 5795 5795 5794 5794 5794 5794 5794 5794 5794 5794 5794 5794 5794 5794 5794 5794 5794 5794 5795
5835 5835 5835 5835 5835 5834 5834 5834 5833 5833 5833 5833 5832 5833 5832 5831 5831 5830 5830 5830 5830 5829 5830 5830 5829 5829 5829 5829 5828 5828 5828 5827 5827 5826 5826 5825 5825 5824 5824 5823 5822 5822 5821 5820 5819 5818 5817 5816 5815 5814 5813 5812 5811 5810 5809 5808 5807 5806 5804 5803 5802 5801 5801 5800 5799 5798 5797 5796 5796 5795 5794 5793 5793 5792 5791 5791 5790 5790 5789 5789 5789 5789 5789 5789 5789 5789 5788 5788 5788 5789 5789 5789 5789 5790 5790 5790 5790
5835 5835 5835 5834 5834 5834 5834 5833 5832 5832 5832 5831 5831 5832 5831 5830 5830 5829 5829 5829 5829 5829 5829 5828 5828 5828 5828 5827 5826 5826 5825 5825 5825 5824 5824 5823 5823 5822 5821 5820 5819 5819 5818 5817 5816 5815 5814 5813 5812 5811 5810 5809 5807 5806 5805 5804 5803 5802 5801 5800 5798 5797 5796 5795 5794 5793 5792 5791 5791 5790 5789 5788 5787 5787 5786 5785 5785 5784 5784 5783 5783 5782 5782 5782 5783 5783 5783 5783 5783 5783 5783 5783 5784 5785 5785 5785 5785
5835 5835 5834 5834 5833 5833 5833 5832 5832 5832 5831 5831 5831 5831 5830 5829 5829 5828 5828 5828 5828 5828 5827 5827 5827 5827 5826 5825 5824 5824 5823 5822 5822 5821 5821 5821 5820 5819 5818 5817 5816 5816 5814 5813 5812 5811 5810 5809 5808 5807 5806 5805 5803 5802 5801 5800 5799 5798 5797 5796 5794 5793 5792 5791 5790 5788 5787 5786 5785 5784 5783 5782 5781 5780 5780 5779 5779 5779 5778 5777 5777 5777 5776 5776 5776 5776 5776 5777 5777 5777 5777 5778 5778 5779 5780 5780 5780
5834 5834 5834 5834 5833 5832 5832 5831 5831 5831 5831 5830 5830 5830 5829 5829 5828 5828 5828 5827 5827 5826 5826 5826 5825 5825 5824 5823 5822 5821 5821 5820 5819 5819 5818 5817 5817 5816 5815 5814 5813 5812 5811 5810 5809 5807 5806 5805 5804 5803 5802 5801 5799 5798 5797 5796 5795 5793 5792 5791 5790 5789 5787 5786 5785 5783 5782 5781 5780 5779 5777 5776 5775 5774 5773 5773 5772 5772 5772 5771 5771 5771 5770 5770 5770 5769 5770 5770 5770 5771 5771 5772 5772 5773 5774 5774 5775
5834 5834 5833 5833 5832 5832 5831 5831 5831 5831 5830 5830 5829 5829 5829 5828 5828 5827 5827 5826 5825 5825 5824 5824 5823 5822 5822 5821 5820 5819 5818 5817 5817 5816 5816 5814 5814 5813 5811 5810 5809 5808 5808 5806 5805 5804 5803 5801 5800 5799 5797 5796 5795 5794 5792 5791 5790 5789 5788 5786 5785 5784 5782 5781 5780 5778 5777 5776 5775 5773 5772 5771 5770 5768 5767 5766 5766 5765 5765 5765 5764 5764 5764 5764 5764 5764 5764 5764 5764 5764 5765 5765 5766 5767 5768 5768 5769
5834 5833 5833 5832 5832 5831 5831 5830 5830 5830 5830 5829 5829 5828 5828 5827 5827 5826 5825 5824 5824 5823 5822 5822 5821 5820 5819 5818 5817 5817 5816 5815 5815 5814 5813 5812 5811 5810 5808 5807 5806 5805 5804 5803 5802 5800 5799 5797 5796 5794 5793 5792 5791 5790 5788 5787 5786 5784 5783 5781 5780 5779 5777 5776 5775 5773 5772 5770 5769 5768 5766 5765 5764 5763 5761 5760 5760 5759 5758 5758 5758 5757 5757 5757 5758 5758 5757 5757 5758 5758 5758 5759 5760 5761 5762 5762 5763
5833 5832 5832 5831 5831 5831 5830 5830 5829 5829 5829 5828 5827 5827 5826 5825 5825 5824 5823 5822 5821 5821 5820 5820 5819 5818 5817 5816 5815 5814 5813 5813 5812 5811 5811 5809 5808 5807 5805 5804 5803 5801 5800 5799 5798 5796 5795 5793 5792 5790 5789 5788 5787 5785 5784 5782 5781 5780 5778 5777 5775 5773 5772 5770 5769 5768 5766 5765 5763 5762 5760 5759 5758 5756 5755 5754 5753 5752 5752 5752 5751 5751 5750 5750 5751 5751 5751 5751 5751 5752 5752 5752 5753 5754 5755 5756 5757
5832 5831 5831 5830 5830 5830 5829 5828 5828 5827 5827 5826 5826 5825 5824 5823 5823 5822 5821 5820 5819 5818 5818 5818 5817 5816 5815 5814 5813 5812 5811 5810 5809 5809 5808 5806 5805 5804 5802 5800 5799 5798 5796 5795 5794 5793 5791 5790 5788 5787 5785 5784 5782 5781 5779 5778 5776 5775 5773 5772 5770 5768 5766 5765 5763 5762 5760 5759 5757 5756 5754 5752 5751 5750 5748 5748 5747 5746 5746 5745 5745 5744 5744 5744 5744 5744 5744 5744 5745 5745 5746 5746 5747 5748 5749 5750 5751
5831 5830 5830 5829 5829 5828 5827 5827 5826 5826 5825 5824 5824 5823 5822 5821 5820 5819 5819 5818 5817 5816 5815 5815 5814 5814 5812 5811 5810 5809 5808 5807 5806 5805 5804 5803 5802 5800 5798 5797 5795 5794 5792 5791 5790 5788 5787 5786 5784 5783 5781 5779 5778 5776 5775 5773 5771 5770 5768 5767 5765 5763 5761 5759 5757 5756 5754 5753 5751 5750 5748 5746 5744 5743 5742 5741 5740 5739 5739 5739 5738 5738 5738 5738 5737 5738 5738 5738 5738 5739 5739 5740 5740 5741 5742 5743 5745
5829 5829 5828 5827 5827 5827 5826 5825 5824 5823 5822 5821 5821 5821 5820 5819 5818 5817 5817 5816 5815 5814 5813 5813 5812 5811 5810 5808 5807 5806 5805 5804 5803 5802 5800 5799 5798 5797 5795 5793 5792 5790 5788 5787 5785 5784 5782 5781 5780 5779 5777 5775 5773 5772 5770 5768 5766 5764 5763 5761 5759 5757 5755 5753 5751 5750 5748 5747 5745 5743 5742 5740 5739 5737 5735 5734 5733 5733 5732 5732 5732 5732 5731 5731 5731 5731 5731 5732 5732 5732 5733 5734 5734 5735 5736 5737 5738
5828 5827 5826 5825 5825 5825 5824 5823 5822 5821 5820 5819 5818 5818 5817 5816 5816 5815 5815 5814 5813 5813 5812 5811 5810 5809 5807 5806 5804 5803 5802 5800 5799 5798 5797 5796 5794 5793 5791 5789 5788 5786 5784 5783 5781 5779 5778 5776 5775 5774 5772 5770 5768 5767 5765 5763 5761 5759 5756 5754 5752 5750 5748 5747 5745 5743 5741 5740 5739 5737 5735 5734 5733 5731 5729 5728 5727 5726 5726 5725 5725 5725 5725 5725 5725 5725 5725 5726 5726 5726 5727 5727 5728 5729 5730 5731 5732
5826 5826 5825 5824 5823 5822 5821 5821 5820 5819 5818 5817 5816 5816 5815 5814 5814 5813 5813 5813 5812 5811 5810 5809 5808 5807 5805 5803 5801 5800 5798 5797 5796 5794 5793 5792 5791 5789 5787 5786 5784 5782 5781 5779 5777 5775 5773 5771 5770 5768 5766 5765 5763 5761 5759 5757 5754 5752 5750 5747 5745 5743 5741 5740 5738 5736 5734 5732 5731 5730 5729 5727 5726 5725 5723 5722 5721 5720 5720 5719 5719 5718 5718 5718 5718 5719 5719 5720 5720 5720 5721 5721 5722 5722 5723 5724 5726
5825 5824 5823 5822 5821 5820 5819 5818 5817 5817 5816 5816 5815 5814 5813 5812 5812 5811 5811 5810 5809 5808 5807 5806 5805 5804 5802 5800 5798 5797 5795 5793 5792 5791 5789 5788 5786 5785 5783 5782 5780 5778 5777 5775 5773 5771 5768 5766 5764 5763 5761 5759 5757 5755 5753 5751 5748 5745 5743 5741 5739 5737 5735 5733 5731 5729 5727 5725 5724 5723 5722 5721 5720 5718 5717 5716 5715 5714 5714 5713 5712 5712 5712 5712 5712 5712 5713 5714 5714 5715 5715 5716 5716 5717 5717 5718 5719
5823 5822 5821 5820 5819 5818 5817 5816 5815 5815 5814 5814 5813 5812 5811 5811 5810 5809 5809 5808 5807 5806 5804 5803 5802 5801 5799 5797 5795 5793 5792 5790 5788 5787 5785 5783 5782 5780 5779 5777 5775 5774 5772 5770 5769 5766 5764 5762 5759 5757 5755 5753 5751 5749 5747 5745 5742 5739 5737 5735 5733 5731 5729 5727 5725 5722 5720 5719 5717 5716 5715 5714 5713 5712 5711 5710 5709 5708 5708 5707 5706 5706 5706 5706 5706 5706 5707 5707 5708 5709 5710 5710 5711 5711 5712 5712 5713
5821 5820 5819 5818 5817 5817 5816 5815 5814 5813 5812 5812 5811 5810 5809 5809 5808 5807 5806 5805 5804 5803 5801 5800 5799 5798 5796 5794 5792 5789 5788 5786 5784 5783 5781 5779 5777 5776 5774 5772 5770 5769 5767 5765 5764 5762 5760 5758 5755 5752 5749 5747 5745 5743 5741 5739 5736 5733 5731 5729 5727 5725 5723 5721 5719 5717 5715 5713 5711 5710 5708 5707 5706 5706 5705 5704 5703 5702 5702 5701 5701 5700 5700 5700 5700 5700 5701 5701 5702 5703 5704 5705 5705 5706 5706 5707 5708
5820 5819 5817 5817 5816 5815 5815 5814 5813 5812 5811 5810 5809 5808 5807 5806 5805 5804 5803 5802 5801 5799 5798 5796 5795 5794 5792 5790 5788 5785 5783 5782 5780 5778 5776 5775 5773 5771 5769 5768 5766 5764 5762 5760 5758 5756 5755 5753 5750 5748 5744 5741 5739 5737 5735 5732 5730 5727 5725 5723 5722 5719 5717 5715 5713 5711 5709 5707 5706 5704 5703 5701 5700 5699 5699 5698 5697 5697 5696 5696 5695 5695 5695 5694 5694 5695 5695 5696 5696 5697 5698 5699 5700 5701 5701 5702 5703
5818 5817 5816 5815 5815 5814 5813 5812 5811 5810 5809 5808 5807 5806 5805 5803 5802 5801 5800 5799 5797 5796 5794 5793 5791 5790 5788 5786 5784 5782 5779 5778 5776 5774 5772 5771 5769 5767 5765 5763 5761 5759 5757 5755 5753 5751 5749 5747 5744 5742 5739 5736 5733 5730 5728 5726 5723 5721 5719 5717 5715 5713 5711 5710 5708 5706 5704 5702 5701 5699 5698 5696 5695 5694 5693 5693 5692 5691 5691 5691 5690 5690 5690 5689 5689 5689 5690 5690 5691 5691 5692 5693 5694 5695 5696 5697 5697
5817 5816 5815 5814 5814 5813 5812 5811 5810 5809 5807 5806 5805 5803 5802 5800 5799 5798 5797 5795 5794 5793 5791 5790 5788 5787 5785 5783 5781 5778 5776 5774 5773 5770 5768 5767 5765 5763 5761 5759 5756 5754 5752 5749 5747 5745 5743 5740 5737 5735 5732 5730 5727 5724 5722 5720 5718 5716 5714 5712 5710 5708 5706 5704 5702 5701 5699 5697 5696 5694 5693 5692 5691 5689 5688 5688 5687 5687 5686 5686 5685 5685 5684 5684 5684 5684 5685 5685 5685 5686 5687 5688 5689 5690 5691 5691 5692
5816 5815 5814 5813 5812 5811 5810 5809 5808 5806 5805 5804 5802 5801 5799 5798 5796 5795 5793 5792 5791 5789 5788 5786 5785 5783 5781 5780 5777 5775 5773 5771 5769 5767 5764 5762 5760 5758 5756 5753 5751 5749 5746 5744 5741 5739 5736 5733 5730 5728 5726 5723 5721 5718 5717 5715 5713 5710 5708 5706 5704 5702 5700 5699 5697 5695 5694 5692 5691 5690 5689 5687 5686 5685 5684 5683 5683 5682 5681 5681 5680 5680 5679 5679 5679 5679 5679 5680 5680 5681 5681 5682 5683 5684 5685 5686 5686
5815 5814 5813 5812 5810 5809 5808 5807 5805 5804 5802 5801 5799 5798 5796 5795 5793 5792 5790 5788 5787 5786 5784 5783 5781 5779 5777 5775 5773 5771 5769 5766 5764 5762 5760 5757 5755 5753 5750 5748 5745 5743 5740 5738 5735 5732 5729 5726 5724 5721 5719 5717 5715 5713 5711 5709 5707 5705 5703 5701 5698 5697 5695 5693 5692 5690 5689 5687 5686 5685 5684 5683 5681 5680 5679 5678 5678 5677 5677 5676 5675 5675 5674 5674 5674 5674 5674 5674 5675 5675 5676 5676 5677 5678 5679 5679 5680
5813 5812 5811 5810 5808 5807 5806 5804 5803 5801 5800 5798 5796 5795 5793 5792 5790 5788 5787 5785 5783 5781 5780 5778 5777 5775 5772 5770 5768 5767 5764 5762 5759 5757 5755 5752 5749 5747 5744 5742 5740 5737 5735 5732 5729 5726 5723 5720 5717 5715 5713 5711 5709 5707 5705 5703 5701 5699 5697 5695 5693 5691 5690 5688 5686 5684 5683 5682 5681 5680 5679 5678 5677 5676 5674 5674 5673 5672 5672 5671 5670 5670 5669 5669 5669 5669 5669 5669 5669 5670 5670 5670 5671 5671 5672 5673 5674
5811 5810 5809 5807 5806 5805 5803 5802 5800 5799 5797 5795 5793 5791 5789 5788 5786 5784 5783 5780 5778 5777 5775 5773 5772 5770 5768 5766 5764 5762 5760 5757 5755 5752 5749 5746 5744 5741 5738 5736 5734 5731 5729 5726 5723 5720 5717 5714 5712 5710 5708 5706 5703 5701 5699 5697 5695 5693 5691 5690 5687 5685 5684 5682 5680 5678 5677 5677 5676 5675 5674 5673 5672 5671 5670 5669 5668 5668 5667 5666 5665 5664 5664 5664 5664 5663 5663 5664 5664 5664 5664 5665 5665 5665 5665 5666 5667
5809 5808 5806 5805 5804 5802 5801 5799 5797 5796 5794 5792 5790 5788 5786 5784 5782 5780 5778 5776 5774 5773 5771 5769 5767 5765 5763 5761 5760 5758 5755 5752 5750 5747 5743 5741 5738 5735 5732 5730 5727 5725 5722 5720 5717 5714 5711 5709 5706 5704 5702 5700 5698 5696 5694 5692 5690 5688 5686 5684 5682 5680 5678 5676 5674 5673 5672 5671 5670 5670 5669 5668 5667 5666 5665 5664 5663 5662 5662 5661 5660 5659 5658 5658 5658 5658 5657 5657 5658 5658 5658 5658 5659 5659 5659 5659 5660
5807 5806 5804 5803 5801 5799 5798 5796 5794 5792 5791 5789 5787 5785 5783 5781 5779 5777 5775 5772 5770 5768 5767 5765 5762 5760 5757 5756 5754 5752 5750 5747 5744 5741 5737 5734 5732 5729 5726 5723 5721 5718 5716 5713 5710 5708 5706 5703 5701 5699 5696 5694 5692 5690 5688 5686 5684 5682 5680 5678 5676 5674 5672 5670 5669 5667 5666 5665 5664 5664 5663 5662 5662 5661 5660 5658 5658 5657 5656 5655 5654 5654 5653 5653 5653 5653 5652 5652 5651 5651 5651 5652 5652 5652 5652 5652 5652
5804 5803 5802 5800 5798 5797 5795 5793 5791 5789 5787 5786 5784 5782 5780 5777 5775 5773 5771 5768 5766 5764 5762 5760 5758 5755 5752 5749 5748 5746 5744 5741 5737 5734 5731 5727 5725 5722 5720 5717 5714 5711 5709 5706 5704 5702 5700 5697 5695 5693 5691 5689 5686 5684 5683 5681 5679 5676 5674 5672 5669 5667 5666 5664 5663 5662 5661 5660 5659 5658 5657 5657 5656 5655 5654 5653 5652 5651 5650 5650 5649 5648 5647 5647 5647 5647 5646 5646 5645 5645 5645 5645 5645 5645 5645 5645 5645
5801 5800 5799 5797 5796 5794 5792 5790 5788 5786 5784 5782 5780 5779 5777 5774 5772 5769 5766 5764 5762 5760 5758 5755 5753 5750 5747 5744 5742 5739 5737 5735 5732 5728 5725 5721 5718 5715 5713 5710 5707 5704 5702 5700 5698 5696 5693 5691 5689 5687 5684 5682 5680 5678 5676 5674 5672 5670 5668 5666 5663 5662 5660 5659 5657 5656 5655 5654 5653 5653 5652 5651 5650 5649 5648 5647 5646 5645 5644 5643 5642 5642 5641 5641 5641 5640 5640 5639 5639 5638 5638 5638 5638 5638 5638 5637 5637
5798 5797 5795 5794 5792 5791 5789 5787 5785 5783 5781 5779 5776 5775 5773 5769 5767 5765 5762 5759 5757 5755 5753 5750 5747 5744 5741 5738 5736 5733 5729 5728 5726 5723 5720 5716 5713 5709 5706 5703 5700 5698 5696 5693 5691 5689 5687 5685 5682 5680 5678 5676 5673 5671 5669 5667 5665 5663 5661 5659 5658 5656 5655 5653 5652 5651 5650 5649 5648 5647 5646 5645 5644 5643 5642 5641 5640 5639 5638 5637 5636 5635 5634 5634 5634 5634 5633 5632 5632 5631 5630 5630 5630 5630 5630 5630 5630
5795 5793 5792 5790 5788 5787 5785 5783 5781 5779 5777 5775 5772 5770 5769 5765 5762 5761 5757 5755 5752 5750 5747 5745 5742 5738 5735 5732 5730 5727 5723 5720 5718 5716 5713 5710 5706 5703 5700 5697 5694 5692 5690 5687 5685 5683 5681 5678 5676 5674 5672 5669 5667 5665 5663 5660 5658 5657 5655 5653 5652 5651 5649 5648 5647 5646 5644 5643 5642 5641 5640 5639 5638 5637 5635 5634 5633 5632 5631 5630 5628 5627 5626 5626 5626 5626 5625 5625 5624 5624 5623 5622 5622 5622 5622 5622 5621
5791 5789 5788 5786 5784 5783 5781 5779 5777 5775 5772 5770 5768 5765 5764 5760 5757 5755 5752 5750 5747 5745 5742 5739 5736 5732 5729 5726 5724 5721 5718 5715 5712 5709 5706 5702 5699 5696 5693 5691 5688 5686 5684 5682 5679 5677 5675 5673 5670 5668 5665 5663 5661 5658 5656 5654 5652 5650 5649 5647 5646 5645 5643 5642 5641 5639 5638 5637 5636 5635 5633 5632 5631 5630 5628 5627 5626 5625 5623 5622 5620 5619 5618 5617 5617 5617 5616 5616 5616 5616 5615 5614 5614 5614 5614 5613 5613
5788 5786 5784 5782 5780 5779 5777 5774 5772 5771 5768 5765 5763 5760 5758 5755 5751 5749 5747 5744 5742 5739 5736 5733 5730 5726 5722 5720 5717 5714 5712 5709 5706 5702 5699 5695 5693 5690 5687 5685 5683 5680 5678 5676 5673 5671 5669 5667 5664 5662 5659 5657 5655 5652 5650 5648 5646 5644 5642 5641 5639 5638 5637 5635 5634 5633 5632 5631 5629 5628 5626 5625 5624 5622 5621 5619 5618 5616 5615 5613 5612 5610 5609 5609 5608 5607 5606 5606 5606 5606 5606 5605 5605 5605 5605 5605 5604
5784 5782 5780 5779 5777 5775 5772 5769 5768 5766 5763 5761 5758 5755 5753 5750 5746 5743 5741 5738 5736 5733 5730 5727 5724 5720 5716 5714 5711 5708 5705 5702 5698 5695 5692 5689 5686 5684 5681 5679 5677 5675 5672 5670 5668 5665 5663 5661 5658 5656 5653 5651 5649 5646 5644 5642 5640 5638 5636 5634 5633 5631 5630 5629 5627 5626 5625 5624 5622 5621 5619 5617 5615 5614 5612 5610 5609 5608 5606 5605 5603 5602 5600 5600 5599 5598 5597 5596 5596 5595 5596 5596 5595 5595 5595 5595 5594
5780 5778 5776 5774 5773 5771 5768 5765 5763 5761 5759 5756 5753 5750 5748 5745 5740 5737 5735 5732 5730 5727 5724 5721 5718 5714 5711 5708 5705 5701 5698 5694 5691 5689 5686 5683 5681 5678 5676 5674 5672 5669 5667 5664 5662 5660 5658 5655 5653 5650 5648 5645 5643 5640 5638 5636 5634 5631 5629 5627 5626 5624 5623 5622 5620 5618 5617 5616 5614 5612 5610 5608 5607 5605 5603 5602 5600 5599 5597 5596 5594 5593 5591 5590 5589 5589 5588 5586 5586 5585 5585 5585 5585 5585 5585 5584 5583
5777 5774 5773 5770 5768 5766 5763 5761 5758 5756 5754 5752 5748 5745 5742 5739 5735 5732 5729 5726 5723 5721 5718 5715 5712 5709 5706 5702 5699 5695 5691 5688 5685 5683 5680 5677 5675 5673 5671 5669 5666 5664 5661 5659 5657 5654 5652 5650 5647 5644 5642 5640 5637 5635 5632 5630 5627 5625 5623 5621 5620 5618 5616 5614 5613 5611 5609 5607 5605 5604 5602 5600 5598 5596 5594 5593 5591 5589 5588 5586 5585 5583 5582 5581 5580 5579 5577 5576 5575 5574 5574 5574 5574 5574 5574 5573 5571
5773 5771 5768 5766 5763 5761 5759 5756 5753 5750 5749 5746 5742 5739 5736 5732 5729 5726 5723 5720 5717 5715 5711 5709 5706 5703 5699 5696 5693 5689 5686 5683 5680 5677 5675 5672 5670 5668 5665 5663 5661 5658 5656 5653 5651 5649 5646 5644 5641 5638 5636 5634 5631 5629 5626 5624 5621 5619 5617 5615 5613 5611 5609 5607 5605 5603 5601 5599 5596 5594 5593 5591 5589 5587 5585 5584 5582 5580 5578 5577 5575 5574 5572 5571 5570 5568 5567 5566 5564 5563 5562 5562 5562 5562 5563 5561 5558
5769 5766 5764 5761 5758 5756 5754 5751 5748 5745 5743 5740 5736 5734 5731 5726 5723 5720 5717 5715 5711 5708 5705 5702 5700 5697 5693 5689 5687 5684 5681 5678 5675 5673 5670 5667 5664 5662 5660 5657 5655 5652 5650 5647 5645 5642 5640 5638 5635 5633 5630 5628 5625 5622 5620 5617 5615 5613 5610 5609 5606 5604 5602 5599 5597 5594 5592 5590 5587 5585 5583 5581 5580 5578 5576 5574 5572 5570 5568 5567 5565 5564 5562 5560 5559 5558 5557 5555 5553 5552 5551 5551 5551 5551 5551 5549 5547
5764 5762 5759 5756 5753 5751 5749 5746 5744 5740 5737 5734 5730 5727 5724 5720 5717 5714 5712 5709 5705 5701 5698 5696 5693 5690 5687 5684 5681 5678 5676 5673 5670 5668 5665 5662 5659 5656 5653 5651 5649 5646 5644 5641 5639 5637 5634 5631 5629 5626 5624 5621 5618 5615 5613 5610 5608 5606 5604 5602 5600 5597 5595 5591 5588 5586 5583 5580 5578 5576 5573 5571 5570 5568 5566 5563 5562 5560 5558 5556 5555 5553 5551 5550 5549 5547 5546 5544 5542 5541 5540 5539 5539 5540 5539 5538 5536
5760 5757 5754 5751 5748 5745 5743 5741 5739 5736 5732 5729 5724 5721 5718 5714 5711 5708 5705 5703 5699 5695 5693 5690 5687 5684 5681 5678 5675 5673 5670 5667 5664 5662 5659 5656 5652 5650 5648 5645 5643 5640 5638 5635 5633 5630 5628 5625 5622 5619 5617 5614 5611 5609 5606 5603 5600 5598 5596 5594 5592 5590 5587 5583 5579 5576 5573 5570 5567 5565 5562 5560 5558 5557 5555 5553 5551 5549 5547 5546 5544 5543 5541 5539 5537 5536 5535 5533 5531 5529 5528 5527 5527 5527 5527 5527 5525
5755 5752 5749 5746 5743 5741 5738 5735 5732 5730 5728 5724 5719 5715 5712 5709 5705 5703 5700 5696 5693 5690 5687 5685 5682 5679 5676 5673 5670 5667 5664 5662 5658 5655 5653 5649 5646 5644 5641 5638 5636 5633 5631 5628 5626 5623 5620 5617 5615 5612 5609 5607 5604 5601 5598 5595 5592 5590 5587 5585 5583 5580 5577 5573 5569 5566 5563 5559 5557 5554 5551 5549 5547 5546 5543 5541 5540 5538 5536 5535 5533 5532 5530 5528 5526 5525 5524 5521 5519 5518 5516 5516 5515 5514 5514 5515 5514
5750 5747 5744 5741 5739 5736 5733 5730 5727 5724 5722 5719 5714 5709 5707 5703 5698 5696 5695 5691 5688 5685 5682 5679 5676 5673 5670 5667 5664 5661 5658 5655 5652 5648 5645 5642 5639 5637 5634 5631 5628 5626 5623 5621 5618 5615 5612 5609 5606 5604 5601 5599 5596 5592 5589 5586 5583 5580 5578 5575 5573 5570 5567 5564 5560 5557 5553 5550 5547 5545 5542 5539 5537 5535 5533 5531 5529 5528 5526 5524 5523 5521 5519 5517 5515 5514 5513 5510 5508 5507 5505 5504 5504 5502 5501 5503 5503
5745 5742 5739 5736 5734 5731 5728 5725 5722 5719 5717 5714 5709 5704 5702 5699 5693 5690 5689 5686 5683 5680 5676 5673 5670 5667 5664 5661 5658 5655 5652 5648 5645 5642 5638 5635 5632 5630 5627 5624 5621 5619 5617 5614 5611 5607 5604 5601 5598 5595 5593 5589 5586 5583 5580 5576 5573 5571 5569 5566 5564 5560 5557 5555 5552 5548 5544 5541 5538 5535 5532 5530 5527 5525 5523 5520 5518 5517 5515 5514 5512 5511 5510 5507 5505 5504 5502 5500 5498 5497 5494 5493 5492 5491 5489 5490 5490
5740 5737 5734 5731 5729 5726 5723 5720 5717 5713 5711 5709 5704 5699 5696 5694 5690 5685 5683 5680 5677 5674 5671 5667 5663 5660 5658 5655 5651 5648 5645 5641 5638 5635 5632 5629 5626 5623 5620 5617 5614 5612 5608 5605 5602 5598 5595 5591 5588 5586 5583 5580 5576 5573 5570 5566 5563 5560 5558 5556 5553 5550 5547 5544 5542 5539 5535 5532 5530 5527 5523 5521 5518 5514 5512 5510 5508 5505 5504 5502 5501 5500 5499 5497 5496 5494 5492 5490 5488 5486 5484 5482 5481 5480 5478 5477 5478
5735 5732 5729 5727 5724 5721 5718 5715 5712 5708 5706 5703 5699 5694 5691 5688 5686 5681 5677 5674 5671 5668 5664 5660 5657 5654 5651 5648 5644 5641 5638 5635 5632 5628 5625 5622 5619 5616 5613 5609 5606 5603 5599 5596 5592 5588 5585 5582 5579 5576 5573 5570 5567 5563 5560 5556 5553 5550 5547 5545 5542 5539 5536 5534 5532 5529 5525 5522 5520 5517 5514 5511 5508 5505 5502 5500 5498 5496 5494 5492 5490 5489 5488 5486 5485 5483 5481 5480 5478 5476 5474 5472 5470 5469 5467 5465 5465
5730 5728 5725 5722 5719 5716 5713 5710 5706 5703 5700 5698 5694 5689 5685 5683 5681 5677 5672 5668 5665 5661 5658 5654 5650 5647 5644 5641 5638 5635 5632 5629 5625 5622 5619 5615 5612 5608 5605 5601 5597 5594 5590 5587 5583 5580 5577 5574 5570 5567 5564 5561 5557 5554 5550 5547 5544 5540 5537 5534 5531 5528 5525 5522 5520 5517 5514 5511 5509 5506 5503 5501 5498 5496 5493 5491 5489 5486 5485 5483 5481 5479 5477 5475 5474 5472 5470 5468 5466 5465 5463 5461 5459 5456 5455 5453 5452
5726 5723 5720 5717 5714 5710 5708 5705 5701 5697 5694 5692 5688 5684 5680 5677 5674 5671 5666 5662 5658 5655 5651 5647 5644 5641 5638 5635 5632 5630 5626 5623 5619 5616 5612 5608 5604 5600 5597 5593 5590 5587 5583 5580 5577 5573 5569 5566 5563 5560 5556 5553 5549 5545 5541 5537 5533 5530 5526 5523 5521 5518 5514 5511 5509 5506 5503 5500 5498 5496 5493 5491 5488 5486 5484 5482 5479 5477 5475 5474 5471 5470 5468 5465 5463 5461 5459 5457 5455 5453 5452 5450 5448 5445 5443 5440 5439
5722 5719 5715 5711 5708 5704 5702 5699 5695 5692 5689 5686 5682 5678 5674 5671 5667 5664 5660 5656 5653 5649 5645 5642 5638 5635 5632 5630 5627 5624 5620 5616 5613 5609 5604 5601 5597 5594 5591 5587 5584 5581 5577 5574 5570 5566 5562 5558 5555 5552 5548 5544 5540 5537 5534 5529 5524 5520 5517 5514 5511 5508 5504 5501 5498 5495 5492 5489 5487 5485 5483 5481 5479 5477 5474 5472 5470 5467 5465 5463 5461 5460 5458 5455 5453 5451 5449 5446 5443 5441 5440 5439 5437 5434 5431 5428 5428
5718 5714 5710 5706 5702 5697 5695 5693 5689 5686 5683 5679 5675 5671 5667 5664 5661 5658 5656 5652 5649 5645 5641 5637 5634 5630 5627 5624 5621 5618 5614 5611 5607 5603 5599 5595 5592 5589 5585 5582 5578 5574 5570 5566 5562 5558 5553 5549 5546 5543 5539 5535 5532 5529 5525 5521 5517 5512 5507 5504 5500 5497 5493 5490 5486 5484 5481 5478 5476 5474 5472 5470 5468 5467 5465 5462 5460 5457 5455 5453 5450 5449 5447 5444 5442 5440 5438 5434 5431 5428 5427 5426 5425 5423 5419 5417 5416
5713 5710 5705 5702 5698 5692 5689 5686 5683 5680 5677 5674 5670 5666 5662 5658 5654 5652 5650 5647 5643 5640 5636 5632 5628 5625 5622 5619 5616 5612 5609 5606 5601 5597 5593 5590 5586 5582 5579 5575 5571 5568 5564 5559 5555 5550 5545 5541 5537 5534 5531 5527 5522 5518 5515 5511 5507 5502 5497 5493 5489 5485 5482 5479 5475 5473 5470 5468 5465 5464 5462 5459 5457 5456 5454 5451 5449 5446 5444 5442 5439 5437 5435 5432 5430 5428 5426 5423 5419 5416 5414 5413 5411 5409 5405 5403 5403
5707 5705 5700 5697 5693 5688 5684 5681 5677 5674 5670 5668 5665 5661 5657 5653 5647 5645 5644 5640 5636 5633 5629 5626 5623 5620 5616 5613 5609 5605 5602 5598 5594 5590 5586 5582 5579 5576 5572 5568 5564 5560 5556 5551 5546 5541 5536 5532 5529 5525 5520 5516 5511 5507 5503 5499 5495 5491 5486 5481 5477 5473 5470 5468 5465 5463 5460 5457 5455 5453 5451 5448 5446 5444 5442 5440 5437 5435 5432 5430 5428 5426 5423 5420 5418 5415 5413 5410 5407 5404 5402 5400 5398 5395 5391 5389 5389
5702 5699 5695 5692 5688 5684 5679 5676 5672 5669 5664 5662 5660 5655 5651 5647 5641 5639 5637 5633 5630 5626 5622 5620 5616 5613 5609 5606 5602 5598 5594 5591 5587 5583 5580 5577 5573 5569 5565 5561 5556 5552 5547 5542 5537 5532 5526 5522 5518 5514 5509 5505 5500 5496 5491 5487 5483 5479 5474 5470 5466 5462 5460 5457 5455 5453 5450 5447 5444 5442 5440 5438 5435 5433 5431 5428 5426 5424 5420 5418 5415 5413 5411 5407 5405 5403 5399 5397 5393 5391 5389 5387 5384 5380 5375 5374 5374
5698 5694 5691 5687 5683 5679 5674 5670 5667 5663 5659 5656 5654 5650 5646 5642 5636 5633 5630 5626 5622 5619 5615 5612 5609 5605 5602 5599 5595 5592 5588 5585 5581 5578 5574 5570 5566 5562 5557 5553 5548 5543 5538 5533 5528 5522 5516 5512 5508 5503 5499 5495 5490 5485 5481 5476 5472 5468 5464 5459 5455 5452 5450 5447 5445 5442 5440 5437 5434 5431 5429 5427 5424 5421 5419 5417 5414 5412 5409 5406 5403 5400 5397 5394 5392 5389 5385 5382 5379 5376 5375 5373 5370 5366 5360 5359 5359
5694 5690 5687 5682 5678 5674 5670 5665 5662 5658 5653 5649 5647 5644 5639 5635 5631 5627 5624 5620 5616 5612 5608 5605 5602 5599 5596 5593 5589 5585 5582 5578 5574 5570 5566 5561 5557 5553 5549 5544 5539 5534 5529 5524 5518 5512 5507 5502 5497 5492 5488 5484 5480 5475 5471 5466 5461 5456 5452 5449 5445 5443 5440 5438 5435 5432 5429 5426 5423 5420 5418 5415 5413 5410 5407 5404 5401 5398 5396 5393 5389 5386 5383 5380 5377 5375 5371 5368 5364 5362 5360 5358 5356 5352 5346 5344 5344
5690 5686 5682 5678 5674 5670 5666 5662 5658 5653 5648 5643 5641 5638 5633 5629 5626 5621 5617 5613 5609 5606 5603 5599 5596 5593 5590 5586 5583 5579 5575 5571 5566 5561 5557 5552 5548 5544 5539 5534 5529 5524 5519 5513 5507 5502 5498 5493 5487 5482 5478 5473 5468 5464 5459 5454 5449 5445 5442 5438 5436 5433 5431 5428 5425 5422 5419 5415 5412 5409 5406 5404 5401 5398 5394 5391 5388 5385 5382 5379 5376 5372 5369 5365 5362 5360 5356 5353 5349 5347 5345 5342 5340 5337 5332 5330 5329
5686 5682 5678 5674 5670 5666 5662 5658 5654 5649 5644 5639 5635 5632 5628 5625 5621 5616 5612 5608 5604 5601 5597 5594 5591 5587 5583 5579 5575 5570 5566 5561 5557 5552 5547 5543 5539 5534 5529 5524 5518 5513 5508 5502 5497 5493 5488 5483 5477 5471 5467 5462 5457 5452 5447 5443 5439 5435 5432 5429 5426 5423 5420 5417 5414 5411 5407 5404 5401 5397 5394 5392 5389 5385 5381 5378 5375 5372 5368 5365 5362 5359 5355 5351 5347 5344 5341 5337 5333 5332 5329 5326 5324 5321 5317 5314 5312
5682 5678 5674 5669 5665 5661 5656 5653 5650 5644 5639 5634 5629 5625 5623 5621 5616 5611 5607 5603 5599 5595 5591 5588 5584 5580 5575 5570 5566 5561 5557 5552 5547 5543 5538 5534 5529 5524 5519 5513 5507 5502 5498 5493 5488 5483 5478 5472 5465 5460 5454 5450 5445 5441 5437 5433 5429 5426 5423 5419 5416 5413 5410 5407 5403 5399 5396 5392 5389 5385 5382 5379 5377 5373 5369 5365 5361 5358 5355 5350 5347 5344 5340 5336 5332 5329 5325 5321 5317 5315 5312 5310 5307 5304 5300 5297 5295